CSN6174 RKSS-ZYYJ

Flight info

Callsign CSN6174
Flight time N/A
Altitude 34100
Route NOPIK2T NOPIK Y697 AGAVO G597 DONVO A326 OBDIS/K0859S0980 A326 SANKO/K0852S1010 W107 CHI A588 LJB G341 KANVU W39 YNJ
Aircraft A321/M-SDE3FGHIRWY/LB1

Departure

Time 2026-04-29 06:59
Airport Gimpo International Airport (RKSS)

Arrival

Time N/A
Airport Yanji Chaoyangchuan Airport (ZYYJ)
Time Latitude Longitude Altitude Speed Heading
2026-04-29 06:39 37.56703 126.80059 67 ft 0 kts 135°
2026-04-29 06:47 37.56708 126.80052 60 ft 3 kts 134°
2026-04-29 06:48 37.56723 126.80033 61 ft 3 kts 134°
2026-04-29 06:48 37.56736 126.80015 65 ft 3 kts 129°
2026-04-29 06:48 37.56746 126.79998 63 ft 2 kts 108°
2026-04-29 06:48 37.56749 126.79987 61 ft 1 kts 71°
2026-04-29 06:49 37.56745 126.79976 63 ft 1 kts 50°
2026-04-29 06:49 37.56740 126.79968 63 ft 1 kts 45°
2026-04-29 06:49 37.56736 126.79964 63 ft 0 kts 45°
2026-04-29 06:52 37.56762 126.79997 62 ft 11 kts 45°
2026-04-29 06:52 37.56813 126.80060 64 ft 10 kts 46°
2026-04-29 06:52 37.56859 126.80105 60 ft 7 kts
2026-04-29 06:53 37.56928 126.80041 59 ft 18 kts 314°
2026-04-29 06:53 37.56941 126.79967 63 ft 5 kts 225°
2026-04-29 06:53 37.56907 126.79920 64 ft 14 kts 225°
2026-04-29 06:53 37.56824 126.79816 61 ft 17 kts 225°
2026-04-29 06:54 37.56744 126.79714 64 ft 17 kts 225°
2026-04-29 06:54 37.56636 126.79580 61 ft 24 kts 224°
2026-04-29 06:54 37.56522 126.79434 61 ft 23 kts 225°
2026-04-29 06:54 37.56413 126.79298 64 ft 22 kts 224°
2026-04-29 06:55 37.56326 126.79189 62 ft 16 kts 226°
2026-04-29 06:55 37.56270 126.79143 64 ft 14 kts 186°
2026-04-29 06:55 37.56185 126.79236 57 ft 16 kts 134°
2026-04-29 06:55 37.56098 126.79344 57 ft 32 kts 136°
2026-04-29 06:56 37.55932 126.79557 61 ft 34 kts 134°
2026-04-29 06:56 37.55771 126.79757 61 ft 32 kts 133°
2026-04-29 06:56 37.55618 126.79947 59 ft 27 kts 137°
2026-04-29 06:56 37.55488 126.80113 59 ft 26 kts 135°
2026-04-29 06:57 37.55364 126.80273 62 ft 25 kts 133°
2026-04-29 06:57 37.55244 126.80420 58 ft 23 kts 135°
2026-04-29 06:57 37.55137 126.80505 59 ft 15 kts 191°
2026-04-29 06:57 37.55063 126.80418 59 ft 19 kts 227°
2026-04-29 06:58 37.54926 126.80245 59 ft 31 kts 226°
2026-04-29 06:58 37.54812 126.80096 54 ft 8 kts 246°
2026-04-29 06:58 37.54827 126.80072 56 ft 2 kts 311°
2026-04-29 06:58 37.54847 126.80046 51 ft 14 kts 314°
2026-04-29 06:59 37.55114 126.79712 59 ft 92 kts 315°
2026-04-29 06:59 37.55718 126.78954 59 ft 151 kts 315°
2026-04-29 06:59 37.56523 126.77950 499 ft 162 kts 317°
2026-04-29 06:59 37.57355 126.76953 1193 ft 168 kts 314°
2026-04-29 07:00 37.58157 126.75942 1854 ft 157 kts 313°
2026-04-29 07:00 37.58930 126.74962 2329 ft 159 kts 314°
2026-04-29 07:00 37.59736 126.73938 2662 ft 174 kts 313°
2026-04-29 07:00 37.60645 126.72784 2845 ft 196 kts 314°
2026-04-29 07:01 37.61654 126.71505 3006 ft 214 kts 314°
2026-04-29 07:01 37.62527 126.69933 3123 ft 232 kts 286°
2026-04-29 07:01 37.62457 126.67832 3278 ft 252 kts 246°
2026-04-29 07:01 37.61498 126.65919 3786 ft 263 kts 230°
2026-04-29 07:02 37.60246 126.64223 4471 ft 266 kts 224°
2026-04-29 07:02 37.58903 126.62593 5196 ft 269 kts 224°
2026-04-29 07:02 37.57545 126.60956 5890 ft 272 kts 224°
2026-04-29 07:02 37.56173 126.59252 6573 ft 275 kts 225°
2026-04-29 07:03 37.54845 126.57546 7216 ft 277 kts 226°
2026-04-29 07:03 37.53507 126.55780 7842 ft 280 kts 226°
2026-04-29 07:03 37.52221 126.53925 8452 ft 283 kts 236°
2026-04-29 07:03 37.51268 126.51748 9055 ft 285 kts 244°
2026-04-29 07:04 37.50386 126.49495 9666 ft 288 kts 243°
2026-04-29 07:04 37.49493 126.47225 10224 ft 293 kts 243°
2026-04-29 07:04 37.48558 126.44857 10351 ft 313 kts 243°
2026-04-29 07:04 37.47571 126.42372 10481 ft 331 kts 243°
2026-04-29 07:05 37.46512 126.39708 10611 ft 348 kts 243°
2026-04-29 07:05 37.45404 126.36921 10740 ft 364 kts 243°
2026-04-29 07:05 37.44246 126.34011 10877 ft 378 kts 243°
2026-04-29 07:05 37.43053 126.31018 11222 ft 385 kts 243°
2026-04-29 07:06 37.41922 126.27994 11654 ft 388 kts 249°
2026-04-29 07:06 37.41181 126.24711 12105 ft 391 kts 259°
2026-04-29 07:06 37.40934 126.21305 12546 ft 393 kts 269°
2026-04-29 07:06 37.40915 126.17853 12979 ft 396 kts 269°
2026-04-29 07:07 37.40889 126.14377 13394 ft 398 kts 269°
2026-04-29 07:07 37.40859 126.10886 13787 ft 401 kts 269°
2026-04-29 07:07 37.40825 126.07373 14165 ft 403 kts 269°
2026-04-29 07:07 37.40788 126.03851 14528 ft 405 kts 269°
2026-04-29 07:08 37.40749 126.00304 14884 ft 407 kts 269°
2026-04-29 07:08 37.40707 125.96731 15232 ft 409 kts 269°
2026-04-29 07:08 37.40667 125.93139 15574 ft 411 kts 269°
2026-04-29 07:08 37.40627 125.89541 15906 ft 413 kts 269°
2026-04-29 07:09 37.40588 125.85920 16236 ft 415 kts 269°
2026-04-29 07:09 37.40552 125.82282 16568 ft 417 kts 269°
2026-04-29 07:09 37.40512 125.78582 16904 ft 419 kts 269°
2026-04-29 07:09 37.40468 125.74913 17236 ft 421 kts 269°
2026-04-29 07:10 37.40422 125.71269 17564 ft 423 kts 269°
2026-04-29 07:10 37.40373 125.67554 17899 ft 425 kts 269°
2026-04-29 07:10 37.40322 125.63813 18234 ft 427 kts 269°
2026-04-29 07:10 37.40272 125.60067 18571 ft 429 kts 269°
2026-04-29 07:11 37.40220 125.56307 18898 ft 431 kts 269°
2026-04-29 07:11 37.40168 125.52521 19228 ft 433 kts 269°
2026-04-29 07:11 37.40112 125.48714 19557 ft 435 kts 269°
2026-04-29 07:11 37.40051 125.44891 19876 ft 437 kts 268°
2026-04-29 07:12 37.39992 125.41099 20183 ft 439 kts 269°